Location: Unspecified
(0.0000°N, 0.0000°E)
Time: 14:43:24
(UTC+02:00)

GPS 2-12 Rocket1 - Visible Passes

Search period start: 29 July 2014 00:00
Search period end: 08 August 2014 00:00
Orbit: 592 x 661 km, 20.0° (Epoch: 28 July)

Date Brightness Start Highest point End Pass type
(mag) Time Alt. Az. Time Alt. Az. Time Alt. Az.
29 Jul 5.0 05:44:10 28° ENE 05:44:10 28° ENE 05:46:43 10° E visible
29 Jul 3.4 07:21:21 11° W 07:25:52 54° SSW 07:30:37 10° ESE visible
29 Jul 5.6 21:16:55 10° NW 21:19:05 13° NNW 21:21:15 10° NNE visible
30 Jul 4.1 06:01:59 43° E 06:01:59 43° E 06:05:17 10° ESE visible
30 Jul 4.1 07:39:58 10° W 07:44:14 32° SSW 07:48:33 10° SE visible
31 Jul 3.7 06:19:45 48° SSE 06:19:45 48° SSE 06:23:31 10° ESE visible
01 Aug 4.0 06:37:27 33° SSW 06:37:27 33° SSW 06:41:29 10° SE visible
02 Aug 4.6 06:55:04 20° SSW 06:55:34 21° SSW 06:59:10 10° SSE visible
03 Aug 5.1 07:12:36 12° SW 07:14:06 14° SSW 07:16:28 10° SSE visible
